Time,TemperatureF,DewpointF,PressureIn,WindDirection,WindDirectionDegrees,WindSpeedMPH,WindSpeedGustMPH,Humidity,HourlyPrecipIn,Conditions,Clouds,dailyrainin,SolarRadiationWatts/m^2,SoftwareType,DateUTC
2013-03-02 00:00:00,38.1,15.9,30.36,NE,39,3.0,21.0,40,0.00,CLR,OVC,0.00,0.0,WeatherDisplay:10.37,2013-03-02 00:00:00,
2013-03-02 00:15:00,37.9,15.7,30.33,NE,46,6.0,13.0,40,0.00,CLR,OVC,0.00,0.0,WeatherDisplay:10.37,2013-03-02 00:15:00,
2013-03-02 00:30:00,37.9,15.7,30.33,NE,36,2.0,6.0,40,0.00,CLR,OVC,0.00,0.0,WeatherDisplay:10.37,2013-03-02 00:30:00,
2013-03-02 00:45:00,37.9,15.7,30.33,NNE,27,2.0,12.0,40,0.00,CLR,OVC,0.00,0.0,WeatherDisplay:10.37,2013-03-02 00:45:00,
2013-03-02 01:00:00,37.9,16.3,30.33,NNE,21,2.0,9.0,41,0.00,CLR,OVC,0.00,0.0,WeatherDisplay:10.37,2013-03-02 01:00:00,
2013-03-02 01:15:00,37.9,16.3,30.33,NNE,25,5.0,13.0,41,0.00,CLR,OVC,0.00,0.0,WeatherDisplay:10.37,2013-03-02 01:15:00,
2013-03-02 01:30:00,37.6,16.0,30.33,North,354,3.0,15.0,41,0.00,CLR,OVC,0.00,0.0,WeatherDisplay:10.37,2013-03-02 01:30:00,
2013-03-02 01:45:00,37.4,15.2,30.33,NNE,25,2.0,15.0,40,0.00,CLR,OVC,0.00,0.0,WeatherDisplay:10.37,2013-03-02 01:45:00,
2013-03-02 02:00:00,37.4,15.2,30.33,NNE,21,3.0,13.0,40,0.00,CLR,OVC,0.00,0.0,WeatherDisplay:10.37,2013-03-02 02:00:00,
2013-03-02 02:15:00,37.4,15.8,30.33,NNE,26,5.0,18.0,41,0.00,CLR,OVC,0.00,0.0,WeatherDisplay:10.37,2013-03-02 02:15:00,
2013-03-02 02:30:00,37.2,16.2,30.30,NNE,21,9.0,18.0,42,0.00,CLR,OVC,0.00,0.0,WeatherDisplay:10.37,2013-03-02 02:30:00,
2013-03-02 02:45:00,37.0,16.0,30.33,NNE,18,5.0,10.0,42,0.00,CLR,OVC,0.00,0.0,WeatherDisplay:10.37,2013-03-02 02:45:00,
2013-03-02 03:00:00,37.0,16.0,30.33,NNE,24,7.0,18.0,42,0.00,CLR,OVC,0.00,0.0,WeatherDisplay:10.37,2013-03-02 03:00:00,
2013-03-02 03:15:00,37.0,16.0,30.33,NNE,13,0.0,13.0,42,0.00,CLR,OVC,0.00,0.0,WeatherDisplay:10.37,2013-03-02 03:15:00,
2013-03-02 03:30:00,37.0,16.0,30.33,NNE,13,0.0,10.0,42,0.00,CLR,OVC,0.00,0.0,WeatherDisplay:10.37,2013-03-02 03:30:00,
2013-03-02 03:45:00,37.0,16.0,30.33,NNE,16,1.0,12.0,42,0.00,CLR,OVC,0.00,0.0,WeatherDisplay:10.37,2013-03-02 03:45:00,
2013-03-02 04:00:00,36.9,15.3,30.33,NNE,33,2.0,13.0,41,0.00,CLR,OVC,0.00,0.0,WeatherDisplay:10.37,2013-03-02 04:00:00,
2013-03-02 04:15:00,36.9,15.3,30.33,ENE,74,7.0,13.0,41,0.00,CLR,OVC,0.00,0.0,WeatherDisplay:10.37,2013-03-02 04:15:00,
2013-03-02 04:30:00,36.9,15.9,30.30,NNE,29,0.0,10.0,42,0.00,CLR,OVC,0.00,0.0,WeatherDisplay:10.37,2013-03-02 04:30:00,
2013-03-02 04:45:00,36.7,15.7,30.33,NNE,22,6.0,12.0,42,0.00,CLR,OVC,0.00,0.0,WeatherDisplay:10.37,2013-03-02 04:45:00,
2013-03-02 05:00:00,36.9,15.3,30.33,NNE,30,0.0,17.0,41,0.00,CLR,OVC,0.00,0.0,WeatherDisplay:10.37,2013-03-02 05:00:00,
2013-03-02 05:15:00,36.7,15.2,30.30,NNE,33,2.0,8.0,41,0.00,CLR,OVC,0.00,0.0,WeatherDisplay:10.37,2013-03-02 05:15:00,
2013-03-02 05:30:00,36.7,15.7,30.30,NNE,31,5.0,10.0,42,0.00,CLR,OVC,0.00,0.0,WeatherDisplay:10.37,2013-03-02 05:30:00,
2013-03-02 05:45:00,36.7,15.7,30.30,NE,40,2.0,7.0,42,0.00,CLR,OVC,0.00,0.0,WeatherDisplay:10.37,2013-03-02 05:45:00,
2013-03-02 06:00:00,36.7,15.7,30.30,NNE,13,0.0,15.0,42,0.00,CLR,OVC,0.00,0.0,WeatherDisplay:10.37,2013-03-02 06:00:00,
2013-03-02 06:15:00,36.7,15.7,30.30,NNE,23,7.0,12.0,42,0.00,CLR,OVC,0.00,0.0,WeatherDisplay:10.37,2013-03-02 06:15:00,
2013-03-02 06:30:00,36.5,15.6,30.30,NNE,31,6.0,13.0,42,0.00,CLR,OVC,0.00,0.0,WeatherDisplay:10.37,2013-03-02 06:30:00,
2013-03-02 06:45:00,36.5,15.6,30.30,NNE,23,5.0,8.0,42,0.00,CLR,OVC,0.00,0.0,WeatherDisplay:10.37,2013-03-02 06:45:00,
2013-03-02 07:00:00,36.5,15.6,30.30,NNE,23,0.0,13.0,42,0.00,CLR,OVC,0.00,0.0,WeatherDisplay:10.37,2013-03-02 07:00:00,
2013-03-02 07:15:00,36.5,15.6,30.30,North,5,6.0,10.0,42,0.00,CLR,OVC,0.00,0.0,WeatherDisplay:10.37,2013-03-02 07:15:00,
2013-03-02 07:30:00,36.7,15.7,30.30,NNE,27,5.0,8.0,42,0.00,CLR,OVC,0.00,0.0,WeatherDisplay:10.37,2013-03-02 07:30:00,
2013-03-02 07:45:00,36.7,15.7,30.30,NNE,20,2.0,9.0,42,0.00,CLR,OVC,0.00,0.0,WeatherDisplay:10.37,2013-03-02 07:45:00,
2013-03-02 08:00:00,36.9,16.4,30.30,NE,55,1.0,15.0,43,0.00,CLR,OVC,0.00,0.0,WeatherDisplay:10.37,2013-03-02 08:00:00,
2013-03-02 08:15:00,36.9,16.4,30.30,NE,38,2.0,13.0,43,0.00,CLR,OVC,0.00,0.0,WeatherDisplay:10.37,2013-03-02 08:15:00,
2013-03-02 08:30:00,37.0,16.0,30.30,NNE,22,3.0,15.0,42,0.00,CLR,OVC,0.00,0.0,WeatherDisplay:10.37,2013-03-02 08:30:00,
2013-03-02 08:45:00,37.2,16.2,30.30,North,7,6.0,13.0,42,0.00,CLR,OVC,0.00,0.0,WeatherDisplay:10.37,2013-03-02 08:45:00,
2013-03-02 09:00:00,37.4,16.4,30.30,NNE,18,2.0,9.0,42,0.00,CLR,OVC,0.00,0.0,WeatherDisplay:10.37,2013-03-02 09:00:00,
2013-03-02 09:15:00,37.4,15.8,30.30,NNE,14,6.0,14.0,41,0.00,CLR,OVC,0.00,0.0,WeatherDisplay:10.37,2013-03-02 09:15:00,
2013-03-02 09:30:00,37.9,16.3,30.30,North,359,5.0,12.0,41,0.00,CLR,OVC,0.00,0.0,WeatherDisplay:10.37,2013-03-02 09:30:00,
2013-03-02 09:45:00,38.1,15.9,30.33,NNE,28,5.0,13.0,40,0.00,CLR,OVC,0.00,0.0,WeatherDisplay:10.37,2013-03-02 09:45:00,
2013-03-02 10:00:00,38.7,17.0,30.30,ESE,105,0.0,7.0,41,0.00,CLR,OVC,0.00,0.0,WeatherDisplay:10.37,2013-03-02 10:00:00,
2013-03-02 10:15:00,38.7,16.4,30.33,NNE,16,3.0,12.0,40,0.00,CLR,OVC,0.00,0.0,WeatherDisplay:10.37,2013-03-02 10:15:00,
2013-03-02 10:30:00,39.2,16.3,30.30,NE,44,2.0,10.0,39,0.00,CLR,OVC,0.00,0.0,WeatherDisplay:10.37,2013-03-02 10:30:00,
2013-03-02 10:45:00,39.6,16.6,30.33,NNW,341,5.0,13.0,39,0.00,CLR,OVC,0.00,0.0,WeatherDisplay:10.37,2013-03-02 10:45:00,
2013-03-02 11:00:00,39.7,16.7,30.30,North,10,3.0,12.0,39,0.00,CLR,OVC,0.00,0.0,WeatherDisplay:10.37,2013-03-02 11:00:00,
2013-03-02 11:15:00,40.1,17.1,30.33,NNE,27,3.0,8.0,39,0.00,CLR,OVC,0.00,0.0,WeatherDisplay:10.37,2013-03-02 11:15:00,
2013-03-02 11:30:00,40.3,17.3,30.30,North,360,0.0,10.0,39,0.00,CLR,OVC,0.00,0.0,WeatherDisplay:10.37,2013-03-02 11:30:00,
2013-03-02 11:45:00,40.3,16.0,30.30,NNW,343,7.0,13.0,37,0.00,CLR,OVC,0.00,0.0,WeatherDisplay:10.37,2013-03-02 11:45:00,
2013-03-02 12:00:00,40.5,16.2,30.30,North,351,2.0,14.0,37,0.00,CLR,OVC,0.00,0.0,WeatherDisplay:10.37,2013-03-02 12:00:00,
2013-03-02 12:15:00,40.5,14.9,30.30,North,1,5.0,13.0,35,0.00,CLR,OVC,0.00,0.0,WeatherDisplay:10.37,2013-03-02 12:15:00,
2013-03-02 12:30:00,41.4,15.7,30.30,NNW,347,3.0,10.0,35,0.00,CLR,OVC,0.00,0.0,WeatherDisplay:10.37,2013-03-02 12:30:00,
2013-03-02 12:45:00,41.7,15.4,30.30,North,9,3.0,12.0,34,0.00,CLR,OVC,0.00,0.0,WeatherDisplay:10.37,2013-03-02 12:45:00,
2013-03-02 13:15:00,42.3,14.5,30.27,North,355,5.0,13.0,32,0.00,CLR,OVC,0.00,0.0,WeatherDisplay:10.37,2013-03-02 13:15:00,
2013-03-02 13:30:00,42.9,14.3,30.27,NNE,22,6.0,13.0,31,0.00,CLR,OVC,0.00,0.0,WeatherDisplay:10.37,2013-03-02 13:30:00,
2013-03-02 13:45:00,43.2,15.3,30.24,NNE,30,2.0,9.0,32,0.00,FEW,OVC,0.00,0.0,WeatherDisplay:10.37,2013-03-02 13:45:00,
2013-03-02 14:00:00,45.2,14.8,30.27,ENE,70,5.0,14.0,29,0.00,CLR,OVC,0.00,0.0,WeatherDisplay:10.37,2013-03-02 14:00:00,
2013-03-02 14:15:00,45.0,14.6,30.27,North,350,3.0,10.0,29,0.00,FEW,OVC,0.00,0.0,WeatherDisplay:10.37,2013-03-02 14:15:00,
2013-03-02 14:30:00,47.5,15.9,30.27,ENE,61,0.0,12.0,28,0.00,SCT,OVC,0.00,0.0,WeatherDisplay:10.37,2013-03-02 14:30:00,
2013-03-02 14:45:00,46.0,14.6,30.27,NNE,30,2.0,13.0,28,0.00,CLR,OVC,0.00,0.0,WeatherDisplay:10.37,2013-03-02 14:45:00,
2013-03-02 15:00:00,46.5,14.2,30.27,North,9,5.0,9.0,27,0.00,FEW,OVC,0.00,0.0,WeatherDisplay:10.37,2013-03-02 15:00:00,
2013-03-02 15:15:00,46.3,14.1,30.27,North,10,1.0,12.0,27,0.00,SCT,OVC,0.00,0.0,WeatherDisplay:10.37,2013-03-02 15:15:00,
2013-03-02 15:30:00,48.6,16.1,30.27,NNW,341,2.0,8.0,27,0.00,SCT,OVC,0.00,0.0,WeatherDisplay:10.37,2013-03-02 15:30:00,
2013-03-02 15:45:00,46.2,14.0,30.27,NE,37,6.0,13.0,27,0.00,CLR,OVC,0.00,0.0,WeatherDisplay:10.37,2013-03-02 15:45:00,
2013-03-02 16:00:00,45.0,13.8,30.27,NE,43,2.0,12.0,28,0.00,BKN,OVC,0.00,0.0,WeatherDisplay:10.37,2013-03-02 16:00:00,
2013-03-02 16:15:00,45.1,13.9,30.24,North,352,2.0,8.0,28,0.00,CLR,OVC,0.00,0.0,WeatherDisplay:10.37,2013-03-02 16:15:00,
2013-03-02 16:30:00,42.3,12.2,30.24,NNE,30,2.0,12.0,29,0.00,CLR,OVC,0.00,0.0,WeatherDisplay:10.37,2013-03-02 16:30:00,
2013-03-02 16:45:00,42.5,13.2,30.24,NNW,340,0.0,9.0,30,0.00,CLR,OVC,0.00,0.0,WeatherDisplay:10.37,2013-03-02 16:45:00,
2013-03-02 17:00:00,42.3,13.0,30.24,NNE,22,1.0,8.0,30,0.00,CLR,OVC,0.00,0.0,WeatherDisplay:10.37,2013-03-02 17:00:00,
2013-03-02 17:15:00,41.5,13.0,30.24,NNE,20,2.0,8.0,31,0.00,CLR,OVC,0.00,0.0,WeatherDisplay:10.37,2013-03-02 17:15:00,
2013-03-02 17:30:00,39.7,12.2,30.24,NNE,22,0.0,2.0,32,0.00,CLR,OVC,0.00,0.0,WeatherDisplay:10.37,2013-03-02 17:30:00,
2013-03-02 17:45:00,38.1,11.5,30.24,NNE,22,0.0,0.0,33,0.00,CLR,OVC,0.00,0.0,WeatherDisplay:10.37,2013-03-02 17:45:00,
2013-03-02 18:00:00,36.3,11.8,30.24,NNE,22,0.0,0.0,36,0.00,CLR,OVC,0.00,0.0,WeatherDisplay:10.37,2013-03-02 18:00:00,
2013-03-02 18:15:00,35.1,13.1,30.24,NNE,22,0.0,0.0,40,0.00,CLR,OVC,0.00,0.0,WeatherDisplay:10.37,2013-03-02 18:15:00,
2013-03-02 18:31:00,34.0,13.3,30.24,NNE,22,0.0,0.0,42,0.00,CLR,OVC,0.00,0.0,WeatherDisplay:10.37,2013-03-02 18:31:00,
2013-03-02 18:45:00,33.0,12.9,30.27,NNE,22,0.0,0.0,43,0.00,CLR,OVC,0.00,0.0,WeatherDisplay:10.37,2013-03-02 18:45:00,
2013-03-02 19:00:00,32.4,12.3,30.27,NNE,22,0.0,0.0,43,0.00,CLR,OVC,0.00,0.0,WeatherDisplay:10.37,2013-03-02 19:00:00,
2013-03-02 19:15:00,31.5,12.0,30.27,NNE,22,0.0,0.0,44,0.00,CLR,OVC,0.00,0.0,WeatherDisplay:10.37,2013-03-02 19:15:00,
2013-03-02 19:30:00,30.8,12.4,30.27,NNE,22,0.0,0.0,46,0.00,CLR,OVC,0.00,0.0,WeatherDisplay:10.37,2013-03-02 19:30:00,
2013-03-02 19:45:00,30.4,12.0,30.27,NNE,22,0.0,0.0,46,0.00,CLR,OVC,0.00,0.0,WeatherDisplay:10.37,2013-03-02 19:45:00,
2013-03-02 20:00:00,29.8,12.0,30.27,NNE,22,0.0,0.0,47,0.00,CLR,OVC,0.00,0.0,WeatherDisplay:10.37,2013-03-02 20:00:00,
2013-03-02 20:15:00,29.3,12.0,30.27,NNE,22,0.0,0.0,48,0.00,CLR,OVC,0.00,0.0,WeatherDisplay:10.37,2013-03-02 20:15:00,
2013-03-02 20:30:00,28.8,12.0,30.27,NNE,22,0.0,0.0,49,0.00,CLR,OVC,0.00,0.0,WeatherDisplay:10.37,2013-03-02 20:30:00,
2013-03-02 20:45:00,28.6,12.3,30.27,NNE,22,0.0,0.0,50,0.00,CLR,OVC,0.00,0.0,WeatherDisplay:10.37,2013-03-02 20:45:00,
2013-03-02 21:00:00,28.4,13.0,30.27,NNE,22,0.0,0.0,52,0.00,CLR,OVC,0.00,0.0,WeatherDisplay:10.37,2013-03-02 21:00:00,
2013-03-02 21:15:00,27.9,12.5,30.27,NNE,22,0.0,0.0,52,0.00,CLR,OVC,0.00,0.0,WeatherDisplay:10.37,2013-03-02 21:15:00,
2013-03-02 21:30:00,28.0,13.1,30.27,NNE,22,0.0,0.0,53,0.00,CLR,OVC,0.00,0.0,WeatherDisplay:10.37,2013-03-02 21:30:00,
2013-03-02 21:45:00,27.5,12.6,30.27,NNE,22,0.0,0.0,53,0.00,CLR,OVC,0.00,0.0,WeatherDisplay:10.37,2013-03-02 21:45:00,
2013-03-02 22:00:00,27.1,12.2,30.27,NNE,22,0.0,0.0,53,0.00,CLR,OVC,0.00,0.0,WeatherDisplay:10.37,2013-03-02 22:00:00,
2013-03-02 22:15:00,27.0,12.5,30.27,NNE,22,0.0,0.0,54,0.00,CLR,OVC,0.00,0.0,WeatherDisplay:10.37,2013-03-02 22:15:00,
2013-03-02 22:30:00,26.6,12.6,30.27,NNE,22,0.0,0.0,55,0.00,CLR,OVC,0.00,0.0,WeatherDisplay:10.37,2013-03-02 22:30:00,
2013-03-02 22:45:00,26.4,12.4,30.27,NNE,22,0.0,0.0,55,0.00,CLR,OVC,0.00,0.0,WeatherDisplay:10.37,2013-03-02 22:45:00,
2013-03-02 23:00:00,26.1,12.5,30.27,NNE,22,0.0,0.0,56,0.00,CLR,OVC,0.00,0.0,WeatherDisplay:10.37,2013-03-02 23:00:00,
2013-03-02 23:15:00,26.1,12.9,30.27,NNE,22,0.0,0.0,57,0.00,CLR,OVC,0.00,0.0,WeatherDisplay:10.37,2013-03-02 23:15:00,
2013-03-02 23:30:00,25.7,12.6,30.27,NNE,22,0.0,0.0,57,0.00,CLR,OVC,0.00,0.0,WeatherDisplay:10.37,2013-03-02 23:30:00,
2013-03-02 23:45:00,25.7,12.6,30.27,NNE,22,0.0,0.0,57,0.00,CLR,OVC,0.00,0.0,WeatherDisplay:10.37,2013-03-02 23:45:00,